This demonstration page uses our WeatherBlox Daily Observations layout. Learn more.

Hourly Observations for May 29, 2016

Temp ( °F °C ) Dew Point ( °F °C ) Humidity (%) Winds ( mph kmh ) Pressure ( in mb ) Visibility ( mi km ) Precip ( " mm )
12:15 am 00:15 Clear 60 15.7 53 11.5 76 76 NNE 6 9 30 1016 10 16.0934 0 0
12:35 am 00:35 Partly Cloudy 60 15.4 51 10.5 73 73 NNW 6 9 30.03 1017 10 16.0934 0 0
12:55 am 00:55 Mostly Cloudy 61 15.9 51 10.5 71 71 NW 9 15 30.06 1018 10 16.0934 0 0
1:15 am 01:15 Mostly Cloudy with Light Rain 59 15.1 52 10.9 76 76 Calm 30.03 1017 10 16.0934 0.01 0.254
1:35 am 01:35 Partly Cloudy 59 15.1 51 10.6 75 75 NW 3 6 30.03 1017 10 16.0934 0.01 0.254
1:55 am 01:55 Clear 59 14.8 51 10.7 77 77 Calm 30.03 1017 10 16.0934 0.01 0.254
2:15 am 02:15 Clear 58 14.5 51 10.6 78 78 Calm 30.03 1017 10 16.0934 0 0
2:35 am 02:35 Clear 56 13.5 52 11 85 85 S 5 7 30 1016 10 16.0934 0 0
2:55 am 02:55 Clear 57 14 51 10.5 80 80 S 3 6 30 1016 10 16.0934 0 0
3:15 am 03:15 Clear 57 13.7 51 10.5 81 81 Calm 30 1016 10 16.0934 0 0
3:35 am 03:35 Clear 57 13.7 51 10.5 81 81 S 5 7 30 1016 10 16.0934 0 0
3:55 am 03:55 Clear 57 14 51 10.4 79 79 SSE 3 6 30 1016 10 16.0934 0 0
4:15 am 04:15 Clear 59 14.8 48 9 68 68 Calm 30 1016 10 16.0934 0 0
4:35 am 04:35 Clear 59 15.2 48 8.9 66 66 Calm 30 1016 10 16.0934 0 0
4:55 am 04:55 Clear 55 13 50 9.9 82 82 Calm 30 1016 10 16.0934 0 0
5:15 am 05:15 Clear 55 12.5 50 10.1 85 85 Calm 30.06 1018 10 16.0934 0 0
5:35 am 05:35 Clear 55 12.8 51 10.5 86 86 Calm 30.06 1018 10 16.0934 0 0
5:55 am 05:55 Clear 54 12.3 50 10.1 87 87 Calm 30.06 1018 10 16.0934 0 0
6:15 am 06:15 Sunny 52 11.2 49 9.7 91 91 Calm 30.09 1019 10 16.0934 0 0
6:35 am 06:35 Sunny 53 11.5 50 10.2 92 92 NW 3 6 30.09 1019 10 16.0934 0 0
6:55 am 06:55 Sunny 55 13 51 10.3 84 84 Calm 30.12 1020 10 16.0934 0 0
7:15 am 07:15 Sunny 56 13.5 52 10.9 84 84 Calm 30.12 1020 10 16.0934 0 0
7:35 am 07:35 Sunny 57 14 53 11.6 86 86 Calm 30.09 1019 10 16.0934 0 0
7:55 am 07:55 Sunny 59 15 54 12 82 82 Calm 30.09 1019 10 16.0934 0 0
8:15 am 08:15 Sunny 60 15.6 54 12.1 80 80 Calm 30.09 1019 10 16.0934 0 0
8:35 am 08:35 Sunny 62 16.5 53 11.9 74 74 Calm 30.09 1019 10 16.0934 0 0
8:55 am 08:55 Sunny 63 17.3 54 12.1 72 72 Calm 30.06 1018 10 16.0934 0 0
9:15 am 09:15 Sunny 64 18 53 11.5 66 66 Calm 30.06 1018 10 16.0934 0 0
9:35 am 09:35 Sunny 67 19.3 53 11.9 62 62 S 3 6 30.06 1018 10 16.0934 0 0
9:55 am 09:55 Sunny 69 20.3 53 11.6 58 58 Calm 30.06 1018 10 16.0934 0 0
10:15 am 10:15 Sunny 70 21.1 53 11.6 55 55 WSW 3 6 30.03 1017 10 16.0934 0 0
10:35 am 10:35 Sunny 71 21.9 54 12.4 55 55 WSW 5 7 30.03 1017 10 16.0934 0 0
10:55 am 10:55 Sunny 73 22.6 54 12.1 52 52 SW 6 9 30.03 1017 10 16.0934 0 0
11:15 am 11:15 Sunny 73 23 53 11.5 48 48 WSW 7 11 30.03 1017 10 16.0934 0 0
11:35 am 11:35 Sunny 75 23.8 55 12.7 50 50 SW 3 6 30 1016 10 16.0934 0 0
11:55 am 11:55 Sunny 76 24.4 54 12.4 47 47 SW 7 11 29.97 1015 10 16.0934 0 0
12:15 pm 12:15 Sunny 76 24.7 55 12.7 47 47 WSW 7 11 29.97 1015 10 16.0934 0 0
12:35 pm 12:35 Sunny 77 25.1 55 12.5 46 46 SW 5 7 29.97 1015 10 16.0934 0 0
12:55 pm 12:55 Sunny 78 25.6 55 12.5 44 44 SW 6 9 29.97 1015 10 16.0934 0 0
1:15 pm 13:15 Sunny 78 25.6 55 12.7 45 45 S 3 6 29.97 1015 10 16.0934 0 0
1:35 pm 13:35 Sunny 79 26.2 55 12.7 43 43 SSW 6 9 29.97 1015 10 16.0934 0 0
1:55 pm 13:55 Sunny 80 26.6 54 12.2 41 41 S 6 9 29.94 1014 10 16.0934 0 0
2:15 pm 14:15 Sunny 80 26.6 54 12 40 40 Calm 29.94 1014 10 16.0934 0 0
2:35 pm 14:35 Sunny 81 27.2 53 11.7 38 38 S 3 6 29.94 1014 10 16.0934 0 0
2:55 pm 14:55 Sunny 82 27.9 53 11.6 36 36 SSW 9 15 29.91 1013 10 16.0934 0 0
3:15 pm 15:15 Sunny 82 27.5 52 11.1 36 36 SSE 3 6 29.88 1012 10 16.0934 0 0
3:35 pm 15:35 Partly Cloudy 81 27.2 53 11.9 39 39 SSE 5 7 29.88 1012 10 16.0934 0 0
3:55 pm 15:55 Partly Cloudy 80 26.5 55 12.9 43 43 S 6 9 29.91 1013 10 16.0934 0 0
4:15 pm 16:15 Sunny with Nearby Thunderstorms 78 25.8 56 13.3 46 46 SSE 8 13 29.91 1013 10 16.0934 0 0
4:35 pm 16:35 Sunny with Light Rain 76 24.7 58 14.2 52 52 SSE 8 13 29.91 1013 10 16.0934 0 0
4:55 pm 16:55 Partly Cloudy with Light Drizzle 75 23.9 57 14.1 54 54 SSE 8 13 29.88 1012 10 16.0934 0 0
5:15 pm 17:15 Partly Cloudy 74 23.5 58 14.4 57 57 SE 9 15 29.88 1012 10 16.0934 0 0
5:35 pm 17:35 Sunny 73 22.9 58 14.5 59 59 ESE 7 11 29.91 1013 10 16.0934 0 0
5:55 pm 17:55 Sunny 74 23.5 57 14.1 56 56 S 7 11 29.88 1012 10 16.0934 0 0
6:15 pm 18:15 Sunny 74 23.6 55 13 52 52 S 6 9 29.88 1012 10 16.0934 0 0
6:35 pm 18:35 Sunny 73 23 55 12.6 52 52 S 3 6 29.91 1013 10 16.0934 0 0
6:55 pm 18:55 Sunny 72 22.3 55 12.9 55 55 Calm 29.91 1013 10 16.0934 0 0
7:15 pm 19:15 Sunny 72 22.2 55 12.6 55 55 S 7 11 29.88 1012 10 16.0934 0 0
7:35 pm 19:35 Sunny 72 22.2 56 13.4 58 58 S 8 13 29.88 1012 10 16.0934 0 0
7:55 pm 19:55 Sunny 74 23.5 56 13.5 54 54 SSE 9 15 29.85 1011 10 16.0934 0 0
8:15 pm 20:15 Sunny 73 22.7 55 12.9 54 54 S 9 15 29.88 1012 10 16.0934 0 0
8:35 pm 20:35 Sunny 72 22.2 54 12 53 53 SW 6 9 29.91 1013 10 16.0934 0 0
8:55 pm 20:55 Sunny with Nearby Thunderstorms 73 22.8 48 8.8 41 41 S 10 17 29.94 1014 10 16.0934 0 0
9:15 pm 21:15 Clear 70 21.3 49 9.5 47 47 SE 10 17 29.94 1014 10 16.0934 0 0
9:35 pm 21:35 Clear 69 20.6 50 10.1 51 51 S 10 17 29.94 1014 10 16.0934 0 0
9:55 pm 21:55 Clear 69 20.7 49 9.7 49 49 S 9 15 29.97 1015 10 16.0934 0 0
10:15 pm 22:15 Clear 67 19.5 51 10.3 55 55 S 8 13 30 1016 10 16.0934 0 0
10:35 pm 22:35 Clear 67 19.2 50 10.1 56 56 SW 5 7 30 1016 10 16.0934 0 0
10:55 pm 22:55 Clear 65 18.6 50 10.2 58 58 S 6 9 30.03 1017 10 16.0934 0 0
11:15 pm 23:15 Clear 65 18.5 50 9.9 57 57 SSW 8 13 30.03 1017 10 16.0934 0 0
11:35 pm 23:35 Clear 64 17.9 50 9.9 60 60 SSW 9 15 30 1016 10 16.0934 0 0
11:55 pm 23:55 Clear 65 18.5 49 9.5 56 56 SSW 10 17 30 1016 10 16.0934 0 0

Powered by AerisWeather